Location: Bocianicha
(51.5066°N, 19.2563°E)
Time: 14:13:39
(UTC+00:00)

Cosmos 773 Rocket - Pass Details

Date: 15 June 2025
Orbit: 741 x 773 km, 74.1° (Epoch: 17 July)

Event Time Altitude Azimuth Distance (km) Brightness Sun altitude
Rises 00:53:07 0° 336° (NNW) 3,214 7.8 -10.0°
Reaches altitude 10° 00:55:30 10° 338° (NNW) 2,290 7.0 -9.8°
Maximum altitude 01:00:41 71° 63° (ENE) 807 4.3 -9.3°
Drops below altitude 10° 01:05:53 10° 148° (SSE) 2,295 6.2 -8.9°
Sets 01:08:16 0° 150° (SSE) 3,222 7.0 -8.7°
